EW6157 Weather Reports


Display with metric or nautical units.
time (UTC)temp
F
wind
direction
speed
MPH
gust
MPH
rain 1hr
in
rain 24hr
in
rain mn
in
humidity
%
barometer
mb
20260502163011 63 314 2.0 10.0 0.00 0.01 0.01 42 1022.7
20260502161505 62 274 6.0 12.0 0.00 0.01 0.01 42 1022.7
20260502151602 57 253 6.0 11.0 0.00 0.01 0.01 57 1023.0
20260502123007 40 210 2.0 6.0 0.01 0.01 0.01 86 1022.2
20260502121508 39 221 2.0 6.0 0.01 0.01 0.01 87 1022.0
20260502114505 39 200 3.0 7.0 0.00 0.00 0.00 88 1021.8
20260502113101 39 252 2.0 5.0 0.00 0.00 0.00 88 1021.7
20260502111601 39 242 1.0 6.0 0.00 0.00 0.00 87 1021.8
20260502104559 38 243 3.0 6.0 0.00 0.00 0.00 88 1021.8
20260502103101 38 240 1.0 5.0 0.00 0.00 0.00 88 1021.8
20260502101629 38 244 3.0 7.0 0.00 0.00 0.00 88 1021.7
20260502100117 38 207 1.0 4.0 0.00 0.00 0.00 88 1021.7
20260502071535 40 245 1.0 3.0 0.00 0.01 0.00 84 1021.5
20260502070043 40 317 0.0 1.0 0.00 0.01 0.00 83 1021.5
20260502064530 40 317 0.0 0.0 0.00 0.01 0.00 82 1021.4
20260502063032 41 317 0.0 2.0 0.00 0.01 0.00 82 1021.3
20260502061530 40 317 0.0 1.0 0.00 0.01 0.00 82 1021.4
20260502060031 40 318 0.0 0.0 0.00 0.01 0.00 83 1021.3
20260502054527 40 335 0.0 0.0 0.00 0.01 0.00 82 1021.3
20260502053025 40 335 0.0 0.0 0.00 0.01 0.00 82 1021.4
20260502051528 40 335 0.0 0.0 0.00 0.01 0.00 81 1021.2
20260502050023 41 335 0.0 0.0 0.00 0.01 0.00 82 1021.0
20260502044518 41 339 0.0 0.0 0.00 0.01 0.01 80 1020.8
20260502043015 43 339 0.0 0.0 0.00 0.01 0.01 80 1020.7
20260502041512 43 339 0.0 0.0 0.00 0.01 0.01 82 1020.6
20260502040010 43 339 0.0 0.0 0.00 0.01 0.01 81 1020.4
20260502034507 44 339 0.0 0.0 0.00 0.01 0.01 79 1020.4
20260502033006 44 339 0.0 0.0 0.00 0.01 0.01 78 1020.4
20260502031505 46 339 0.0 0.0 0.00 0.01 0.01 74 1020.3
20260502030005 47 339 0.0 1.0 0.00 0.01 0.01 74 1020.0
20260502024509 47 325 0.0 2.0 0.00 0.01 0.01 73 1019.9
20260502023002 48 327 0.0 1.0 0.00 0.01 0.01 71 1019.8
20260502021600 49 326 0.0 0.0 0.00 0.01 0.01 70 1019.7
20260502020059 49 326 0.0 2.0 0.00 0.01 0.01 69 1019.3
20260502014555 50 321 0.0 1.0 0.00 0.01 0.01 67 1019.0
20260502013053 52 319 0.0 2.0 0.00 0.01 0.01 64 1018.8
20260502012553 52 319 0.0 2.0 0.00 0.01 0.01 63 1018.6
20260502012053 53 317 0.0 1.0 0.00 0.01 0.01 62 1018.5
20260502011558 53 317 0.0 2.0 0.00 0.01 0.01 61 1018.4
20260502011052 53 317 0.0 4.0 0.00 0.01 0.01 61 1018.4
20260502010554 53 317 0.0 4.0 0.00 0.01 0.01 61 1018.4
20260502010052 54 320 0.0 4.0 0.00 0.01 0.01 60 1018.3
20260502005552 55 307 1.0 4.0 0.00 0.01 0.01 57 1018.3
20260502005051 56 325 1.0 3.0 0.00 0.01 0.01 57 1018.2
20260502004608 56 344 1.0 3.0 0.00 0.01 0.01 56 1018.2
20260502004051 56 356 0.0 4.0 0.00 0.01 0.01 57 1018.1
20260502003550 56 280 1.0 4.0 0.00 0.01 0.01 56 1018.1
20260502003051 56 325 0.0 5.0 0.00 0.01 0.01 56 1018.0
20260502002550 56 326 1.0 5.0 0.00 0.01 0.01 56 1018.0
20260502002050 56 326 0.0 4.0 0.00 0.01 0.01 56 1018.0
20260502001550 56 326 1.0 4.0 0.00 0.01 0.01 56 1018.1
20260502001049 56 330 0.0 2.0 0.00 0.01 0.01 55 1017.9
20260502000549 56 329 1.0 3.0 0.00 0.01 0.01 55 1017.9
20260502000049 56 37 1.0 4.0 0.00 0.01 0.01 55 1017.9
20260501235549 56 325 1.0 4.0 0.00 0.01 0.01 55 1017.9
20260501235047 56 49 0.0 2.0 0.00 0.01 0.01 55 1017.9
20260501234548 56 33 0.0 2.0 0.00 0.01 0.01 57 1017.9
20260501234049 55 319 0.0 2.0 0.00 0.01 0.01 57 1017.9
20260501233548 55 319 0.0 3.0 0.00 0.01 0.01 58 1017.8
20260501233048 55 319 0.0 3.0 0.00 0.01 0.01 58 1017.9
20260501232548 55 319 1.0 3.0 0.00 0.01 0.01 57 1017.9
20260501232047 55 326 1.0 2.0 0.00 0.01 0.01 57 1017.8
20260501231553 56 331 0.0 1.0 0.00 0.01 0.01 57 1017.8
20260501231047 56 280 0.0 1.0 0.00 0.01 0.01 59 1017.9
20260501230545 55 281 0.0 3.0 0.00 0.01 0.01 62 1018.1
20260501230047 54 281 0.0 3.0 0.00 0.01 0.01 62 1018.1
20260501225544 54 281 0.0 4.0 0.00 0.01 0.01 64 1018.1
20260501225041 53 281 0.0 4.0 0.00 0.01 0.01 64 1018.1
20260501224548 53 316 0.0 2.0 0.00 0.01 0.01 66 1018.1
20260501224042 53 316 0.0 3.0 0.00 0.01 0.01 65 1018.1
20260501223545 53 317 0.0 1.0 0.00 0.01 0.01 66 1018.1
20260501223104 52 317 0.0 3.0 0.00 0.01 0.01 67 1018.0
20260501222542 52 20 0.0 3.0 0.00 0.01 0.01 68 1018.0
20260501222042 52 316 0.0 3.0 0.00 0.01 0.01 69 1018.0
20260501221541 52 348 0.0 3.0 0.00 0.01 0.01 70 1018.0
20260501221040 52 329 0.0 2.0 0.00 0.01 0.01 73 1017.9
20260501220540 51 1 0.0 3.0 0.00 0.01 0.01 75 1017.9
20260501220040 51 338 0.0 3.0 0.00 0.01 0.01 75 1017.9
20260501215540 51 316 0.0 4.0 0.00 0.01 0.01 77 1017.9
20260501215040 51 341 1.0 4.0 0.00 0.01 0.01 75 1017.9
20260501214540 51 321 0.0 5.0 0.00 0.01 0.01 77 1018.0
20260501214039 51 283 0.0 5.0 0.00 0.01 0.01 77 1018.1
20260501213539 51 358 0.0 3.0 0.00 0.01 0.01 76 1018.1
20260501213041 51 321 0.0 2.0 0.00 0.01 0.01 76 1018.1
20260501212538 51 316 0.0 3.0 0.00 0.01 0.01 75 1018.2
20260501212034 51 321 0.0 5.0 0.00 0.01 0.01 74 1018.3
20260501211534 52 310 0.0 5.0 0.00 0.01 0.01 75 1018.3
20260501211034 52 316 0.0 6.0 0.00 0.01 0.01 74 1018.4
20260501210533 52 349 1.0 6.0 0.00 0.01 0.01 71 1018.4
20260501210033 52 328 2.0 3.0 0.00 0.01 0.01 70 1018.4
20260501205539 52 311 1.0 3.0 0.00 0.01 0.01 70 1018.4
20260501205032 52 10 0.0 3.0 0.00 0.01 0.01 69 1018.4
20260501204533 52 321 1.0 3.0 0.00 0.01 0.01 66 1018.4
20260501204032 53 328 0.0 4.0 0.00 0.01 0.01 66 1018.5
20260501203532 53 315 1.0 4.0 0.00 0.01 0.01 66 1018.5
20260501203047 53 337 2.0 6.0 0.00 0.01 0.01 64 1018.5
20260501202532 53 333 2.0 6.0 0.00 0.01 0.01 64 1018.5
20260501202032 53 32 0.0 6.0 0.00 0.01 0.01 65 1018.5
20260501201531 53 4 2.0 6.0 0.00 0.01 0.01 62 1018.6
20260501201030 53 58 0.0 4.0 0.00 0.01 0.01 64 1018.5
20260501200532 53 39 0.0 4.0 0.00 0.01 0.01 61 1018.5
20260501200034 53 325 1.0 5.0 0.00 0.01 0.01 61 1018.6
20260501195531 53 13 1.0 6.0 0.00 0.01 0.01 62 1018.6
20260501195031 53 338 1.0 8.0 0.00 0.01 0.01 63 1018.6
20260501194530 53 35 4.0 8.0 0.00 0.01 0.01 61 1018.5
20260501194030 53 34 4.0 7.0 0.00 0.01 0.01 62 1018.5
20260501193530 53 27 2.0 4.0 0.00 0.01 0.01 61 1018.5
20260501193029 53 27 1.0 8.0 0.00 0.01 0.01 61 1018.4
20260501192532 53 49 1.0 6.0 0.00 0.01 0.01 62 1018.4
20260501192029 53 315 1.0 7.0 0.00 0.01 0.01 63 1018.4
20260501191529 53 319 3.0 7.0 0.00 0.01 0.01 63 1018.4
20260501191029 53 29 1.0 8.0 0.00 0.01 0.01 63 1018.4
20260501190529 53 45 1.0 9.0 0.00 0.01 0.01 61 1018.4
20260501190034 53 53 1.0 9.0 0.00 0.01 0.01 63 1018.4
20260501185528 53 345 2.0 7.0 0.00 0.01 0.01 63 1018.4
20260501185028 52 316 2.0 7.0 0.00 0.01 0.01 63 1018.5
20260501184550 52 39 2.0 7.0 0.00 0.01 0.01 63 1018.5
20260501184028 53 29 4.0 7.0 0.00 0.01 0.01 62 1018.5
20260501183528 53 53 1.0 6.0 0.00 0.01 0.01 64 1018.5
20260501183028 53 327 1.0 7.0 0.00 0.01 0.01 62 1018.5
20260501182526 53 51 3.0 7.0 0.00 0.01 0.01 61 1018.6
20260501182027 53 56 2.0 9.0 0.00 0.01 0.01 60 1018.6
20260501181527 53 44 4.0 9.0 0.00 0.01 0.01 60 1018.6
20260501181027 53 46 1.0 6.0 0.00 0.01 0.01 60 1018.7
20260501180531 52 34 1.0 11.0 0.00 0.01 0.01 61 1018.7
20260501180027 52 32 5.0 11.0 0.00 0.01 0.01 59 1018.7
20260501175525 52 32 5.0 10.0 0.00 0.01 0.01 59 1018.7
20260501175029 52 41 3.0 9.0 0.00 0.01 0.01 59 1018.7
20260501174525 52 43 5.0 9.0 0.00 0.01 0.01 59 1018.7
20260501174025 52 35 5.0 8.0 0.00 0.01 0.01 59 1018.7
20260501173524 52 48 4.0 8.0 0.00 0.01 0.01 60 1018.7
20260501173024 52 41 4.0 11.0 0.00 0.01 0.01 59 1018.6
20260501172526 52 25 4.0 9.0 0.00 0.01 0.01 60 1018.5